This is the latest recevied weather packets stored in our database for station/object KJ7BRE-1. If no packets are shown the sender has not sent any weather packets the latest 10 day(s).
| Time | Temp. | Humidity | Pressure | Rain* | Wind** | Luminosity | Snow |
|---|---|---|---|---|---|---|---|
| 1777590334 | 28.33° C | 28% | 1008.8 hPa | 0 mm | - | - | - |
| 1777590033 | 27.78° C | 29% | 1008.8 hPa | 0 mm | - | - | - |
| 1777589731 | 27.78° C | 30% | 1008.8 hPa | 0 mm | - | - | - |
| 1777589129 | 27.78° C | 29% | 1009.1 hPa | 0 mm | - | - | - |
| 1777588827 | 27.78° C | 29% | 1009.1 hPa | 0 mm | - | - | - |
| 1777588526 | 27.78° C | 29% | 1009.1 hPa | 0 mm | - | - | - |
| 1777588225 | 27.22° C | 29% | 1009.1 hPa | 0 mm | - | - | - |
| 1777587924 | 28.33° C | 28% | 1009.1 hPa | 0 mm | - | - | - |
| 1777587623 | 27.78° C | 28% | 1009.1 hPa | 0 mm | - | - | - |
| 1777587321 | 27.78° C | 29% | 1009.5 hPa | 0 mm | - | - | - |
| 1777587020 | 27.22° C | 29% | 1009.5 hPa | 0 mm | - | - | - |
| 1777586719 | 27.78° C | 30% | 1009.5 hPa | 0 mm | - | - | - |
| 1777586418 | 27.22° C | 30% | 1009.5 hPa | 0 mm | - | - | - |
| 1777586117 | 27.78° C | 31% | 1009.8 hPa | 0 mm | - | - | - |
| 1777585816 | 28.33° C | 30% | 1009.8 hPa | 0 mm | - | - | - |
| 1777585514 | 27.78° C | 32% | 1009.8 hPa | 0 mm | - | - | - |
| 1777585213 | 27.22° C | 32% | 1009.8 hPa | 0 mm | - | - | - |
| 1777584912 | 27.78° C | 30% | 1009.8 hPa | 0 mm | - | - | - |
| 1777584611 | 27.22° C | 31% | 1009.8 hPa | 0 mm | - | - | - |
| 1777584009 | 27.22° C | 31% | 1009.8 hPa | 0 mm | - | - | - |
| 1777583707 | 27.22° C | 31% | 1010.2 hPa | 0 mm | - | - | - |
| 1777583406 | 27.22° C | 31% | 1010.2 hPa | 0 mm | - | - | - |
| 1777583105 | 26.67° C | 34% | 1010.2 hPa | 0 mm | - | - | - |
| 1777582502 | 26.67° C | 34% | 1010.2 hPa | 0 mm | - | - | - |
| 1777582201 | 26.11° C | 33% | 1010.2 hPa | 0 mm | - | - | - |
* Rain latest hour (hover to see other rain measurements)
** Current wind speed in m/s (hover to see current wind gust speed)